Time,TemperatureF,DewpointF,PressureIn,WindDirection,WindDirectionDegrees,WindSpeedMPH,WindSpeedGustMPH,Humidity,HourlyPrecipIn,Conditions,Clouds,dailyrainin,SolarRadiationWatts/m^2,SoftwareType,DateUTC
2015-06-02 00:51:00,57.0,16.0,30.03,SSE,154,9.0,13.0,20,-99.99,,,-99.99,1.000000,,2015-06-02 07:51:00,
2015-06-02 01:00:00,60.0,14.0,30.02,SSE,160,10.0,13.0,16,-99.99,,,-99.99,1.000000,,2015-06-02 08:00:00,
2015-06-02 01:01:00,58.0,15.0,30.02,SSE,154,10.0,12.0,18,-99.99,,,-99.99,0.000000,,2015-06-02 08:01:00,
2015-06-02 01:11:00,59.0,16.0,30.03,SSE,164,7.0,12.0,18,-99.99,,,-99.99,1.000000,,2015-06-02 08:11:00,
2015-06-02 06:22:00,44.0,24.0,30.06,SE,138,7.0,9.0,46,-99.99,,,-99.99,19.000000,,2015-06-02 13:22:00,
2015-06-02 06:31:00,44.0,24.0,30.06,SE,138,7.0,9.0,46,-99.99,,,-99.99,19.000000,,2015-06-02 13:31:00,
2015-06-02 06:43:00,44.0,24.0,30.07,SE,136,6.0,9.0,44,-99.99,,,-99.99,20.000000,,2015-06-02 13:43:00,
2015-06-02 07:10:00,60.0,27.0,30.09,WNW,301,0.0,2.0,28,-99.99,,,-99.99,317.000000,,2015-06-02 14:10:00,
2015-06-02 07:43:00,58.0,26.0,30.09,NE,38,1.0,3.0,30,-99.99,,,-99.99,282.000000,,2015-06-02 14:43:00,
2015-06-02 07:51:00,60.0,27.0,30.09,WNW,301,0.0,2.0,28,-99.99,,,-99.99,317.000000,,2015-06-02 14:51:00,
2015-06-02 08:03:00,60.0,27.0,30.09,WNW,301,0.0,2.0,28,-99.99,,,-99.99,317.000000,,2015-06-02 15:03:00,
2015-06-02 08:42:00,61.0,26.0,30.09,NW,320,3.0,7.0,26,-99.99,,,-99.99,501.000000,,2015-06-02 15:42:00,
2015-06-02 08:52:00,61.0,26.0,30.09,NW,320,3.0,7.0,26,-99.99,,,-99.99,501.000000,,2015-06-02 15:52:00,
2015-06-02 09:10:00,63.0,26.0,30.09,NNW,341,7.0,11.0,24,-99.99,,,-99.99,739.000000,,2015-06-02 16:10:00,
2015-06-02 09:52:00,63.0,26.0,30.09,NNW,341,7.0,11.0,24,-99.99,,,-99.99,739.000000,,2015-06-02 16:52:00,
2015-06-02 10:02:00,63.0,26.0,30.09,NNW,341,7.0,11.0,24,-99.99,,,-99.99,739.000000,,2015-06-02 17:02:00,
2015-06-02 11:30:00,73.0,24.0,30.06,ENE,69,2.0,9.0,16,-99.99,,,-99.99,1044.000000,,2015-06-02 18:30:00,
2015-06-02 11:32:00,69.0,23.0,30.07,SSE,150,3.0,9.0,18,-99.99,,,-99.99,969.000000,,2015-06-02 18:32:00,
2015-06-02 11:42:00,70.0,24.0,30.07,SW,228,1.0,5.0,18,-99.99,,,-99.99,987.000000,,2015-06-02 18:42:00,
2015-06-02 11:52:00,70.0,24.0,30.07,WSW,254,3.0,7.0,18,-99.99,,,-99.99,1003.000000,,2015-06-02 18:52:00,
2015-06-02 12:03:00,71.0,25.0,30.07,NNW,328,4.0,7.0,18,-99.99,,,-99.99,1018.000000,,2015-06-02 19:03:00,
2015-06-02 12:12:00,73.0,24.0,30.06,ENE,69,2.0,9.0,16,-99.99,,,-99.99,1044.000000,,2015-06-02 19:12:00,
2015-06-02 12:22:00,73.0,24.0,30.06,ENE,69,2.0,9.0,16,-99.99,,,-99.99,1044.000000,,2015-06-02 19:22:00,